• In Netherlands
  • List of Countries
  • For 7 days
  • Water Temperature
  • Satellite Maps
  • Weather Map
  • Weather Widgets
  • user-avatar
    Login

    Hourly Weather Newcastle

    Today, 25 June, Sunday

    Time Temperature Precipitation Wind Pressure Humidity
    00:00 +9°C° 0 mm 3 mps 762 mmHg 79%
    01:00 +9°C° 0 mm 3 mps 762 mmHg 80%
    02:00 +8°C° 0 mm 3 mps 762 mmHg 82%
    03:00 +8°C° 0 mm 3 mps 762 mmHg 83%
    04:00 +8°C° 0 mm 3 mps 762 mmHg 84%
    05:00 +8°C° 0 mm 3 mps 762 mmHg 84%
    06:00 +8°C° 0 mm 3 mps 763 mmHg 84%
    07:00 +8°C° 0 mm 3 mps 763 mmHg 85%
    08:00 +10°C° 0 mm 3 mps 763 mmHg 76%
    09:00 +12°C° 0 mm 3 mps 763 mmHg 67%
    10:00 +15°C° 0 mm 5 mps 763 mmHg 56%
    11:00 +16°C° 0 mm 5 mps 762 mmHg 52%
    12:00 +17°C° 0 mm 5 mps 762 mmHg 48%
    13:00 +19°C° 0 mm 4 mps 762 mmHg 44%
    14:00 +19°C° 0 mm 4 mps 762 mmHg 50%
    15:00 +18°C° 0 mm 3 mps 761 mmHg 55%
    16:00 +17°C° 0 mm 3 mps 761 mmHg 61%
    17:00 +14°C° 0 mm 3 mps 761 mmHg 63%
    18:00 +13°C° 0 mm 3 mps 762 mmHg 66%
    19:00 +12°C° 0 mm 3 mps 763 mmHg 69%
    20:00 +11°C° 0 mm 3 mps 763 mmHg 71%
    21:00 +11°C° 0 mm 4 mps 763 mmHg 73%
    22:00 +10°C° 0 mm 4 mps 763 mmHg 75%
    23:00 +10°C° 0 mm 4 mps 763 mmHg 77%

    Tomorrow, 26 June, Monday

    Time Temperature Precipitation Wind Pressure Humidity
    00:00 +8°C° 0 mm 4 mps 763 mmHg 79%
    01:00 +8°C° 0 mm 4 mps 763 mmHg 82%
    02:00 +8°C° 0 mm 4 mps 763 mmHg 83%
    03:00 +8°C° 0 mm 4 mps 763 mmHg 84%
    04:00 +8°C° 0 mm 4 mps 763 mmHg 85%
    05:00 +7°C° 0 mm 4 mps 764 mmHg 86%
    06:00 +7°C° 0 mm 4 mps 764 mmHg 87%
    07:00 +7°C° 0 mm 4 mps 765 mmHg 89%
    08:00 +10°C° 0 mm 4 mps 765 mmHg 79%
    09:00 +12°C° 0 mm 3 mps 765 mmHg 69%
    10:00 +14°C° 0 mm 3 mps 766 mmHg 59%
    11:00 +16°C° 0 mm 3 mps 765 mmHg 54%
    12:00 +17°C° 0 mm 3 mps 765 mmHg 49%
    13:00 +18°C° 0 mm 3 mps 765 mmHg 44%
    14:00 +17°C° 0 mm 2 mps 765 mmHg 49%
    15:00 +16°C° 0 mm 2 mps 765 mmHg 54%
    16:00 +16°C° 0 mm 2 mps 765 mmHg 60%
    17:00 +13°C° 0 mm 2 mps 766 mmHg 70%
    18:00 +9°C° 0 mm 2 mps 766 mmHg 80%
    19:00 +7°C° 0 mm 2 mps 767 mmHg 90%
    20:00 +6°C° 0 mm 2 mps 767 mmHg 92%
    21:00 +7°C° 0 mm 1 mps 768 mmHg 94%
    22:00 +6°C° 0 mm 1 mps 768 mmHg 95%
    23:00 +6°C° 0 mm 2 mps 768 mmHg 93%

    Day after tomorrow, 27 June, Tuesday

    Time Temperature Precipitation Wind Pressure Humidity
    00:00 +6°C° 0 mm 2 mps 768 mmHg 90%
    01:00 +7°C° 0 mm 2 mps 768 mmHg 88%
    02:00 +7°C° 0 mm 2 mps 768 mmHg 88%
    03:00 +7°C° 0 mm 2 mps 768 mmHg 88%
    04:00 +7°C° 0 mm 2 mps 768 mmHg 88%
    05:00 +6°C° 0 mm 2 mps 768 mmHg 90%
    06:00 +6°C° 0 mm 2 mps 769 mmHg 92%
    07:00 +5°C° 0 mm 2 mps 769 mmHg 94%
    08:00 +8°C° 0.1 mm 2 mps 769 mmHg 84%
    09:00 +12°C° 0.1 mm 2 mps 769 mmHg 74%
    10:00 +15°C° 0.1 mm 2 mps 769 mmHg 64%
    11:00 +16°C° 0 mm 2 mps 769 mmHg 60%
    12:00 +18°C° 0 mm 2 mps 768 mmHg 57%
    13:00 +20°C° 0 mm 1 mps 768 mmHg 54%
    14:00 +19°C° 0 mm 1 mps 767 mmHg 59%
    15:00 +18°C° 0 mm 1 mps 767 mmHg 64%
    16:00 +16°C° 0 mm 1 mps 767 mmHg 69%
    17:00 +15°C° 0 mm 1 mps 767 mmHg 75%
    18:00 +14°C° 0 mm 1 mps 767 mmHg 80%
    19:00 +13°C° 0 mm 1 mps 768 mmHg 86%
    20:00 +12°C° 0 mm 1 mps 768 mmHg 88%
    21:00 +12°C° 0 mm 1 mps 768 mmHg 90%
    22:00 +10°C° 0 mm 2 mps 768 mmHg 92%
    23:00 +10°C° 0 mm 2 mps 768 mmHg 93%

    28 June, Wednesday

    Time Temperature Precipitation Wind Pressure Humidity
    00:00 +9°C° 0 mm 2 mps 767 mmHg 94%
    01:00 +9°C° 0 mm 2 mps 767 mmHg 95%
    02:00 +9°C° 0 mm 2 mps 767 mmHg 96%
    03:00 +8°C° 0 mm 2 mps 766 mmHg 96%
    04:00 +8°C° 0 mm 2 mps 766 mmHg 97%
    05:00 +8°C° 0 mm 2 mps 766 mmHg 97%
    06:00 +8°C° 0 mm 3 mps 767 mmHg 96%
    07:00 +9°C° 0 mm 3 mps 767 mmHg 96%
    08:00 +11°C° 0 mm 3 mps 767 mmHg 86%
    09:00 +13°C° 0 mm 3 mps 767 mmHg 75%
    10:00 +16°C° 0 mm 2 mps 767 mmHg 65%
    11:00 +16°C° 0.3 mm 3 mps 766 mmHg 73%
    12:00 +16°C° 0.3 mm 3 mps 765 mmHg 80%
    13:00 +16°C° 0.3 mm 3 mps 764 mmHg 87%
    14:00 +14°C° 1.2 mm 3 mps 764 mmHg 91%
    15:00 +13°C° 1.2 mm 3 mps 764 mmHg 94%
    16:00 +12°C° 1.2 mm 3 mps 764 mmHg 97%
    17:00 +12°C° 2.4 mm 3 mps 764 mmHg 97%
    18:00 +12°C° 2.4 mm 3 mps 764 mmHg 98%
    19:00 +11°C° 2.4 mm 3 mps 765 mmHg 98%
    20:00 +11°C° 0.7 mm 3 mps 765 mmHg 98%
    21:00 +11°C° 0.7 mm 3 mps 765 mmHg 98%
    22:00 +10°C° 0.7 mm 3 mps 765 mmHg 98%
    23:00 +10°C° 0 mm 3 mps 765 mmHg 98%

    29 June, Thursday

    Time Temperature Precipitation Wind Pressure Humidity
    00:00 +10°C° 0 mm 3 mps 764 mmHg 98%
    01:00 +10°C° 0 mm 4 mps 764 mmHg 97%
    02:00 +9°C° 0 mm 3 mps 764 mmHg 97%
    03:00 +9°C° 0 mm 3 mps 764 mmHg 98%
    04:00 +8°C° 0 mm 3 mps 764 mmHg 98%
    05:00 +9°C° 0 mm 3 mps 764 mmHg 98%
    06:00 +9°C° 0 mm 3 mps 764 mmHg 97%
    07:00 +9°C° 0 mm 3 mps 764 mmHg 97%
    08:00 +10°C° 0.1 mm 3 mps 764 mmHg 94%
    09:00 +10°C° 0.1 mm 3 mps 765 mmHg 92%
    10:00 +11°C° 0.1 mm 3 mps 765 mmHg 90%
    11:00 +12°C° 0 mm 3 mps 764 mmHg 80%
    12:00 +14°C° 0 mm 4 mps 764 mmHg 70%
    13:00 +15°C° 0 mm 4 mps 763 mmHg 60%
    14:00 +15°C° 0 mm 4 mps 763 mmHg 61%
    15:00 +15°C° 0 mm 4 mps 763 mmHg 62%
    16:00 +14°C° 0 mm 4 mps 763 mmHg 63%
    17:00 +13°C° 0 mm 5 mps 763 mmHg 66%
    18:00 +12°C° 0 mm 5 mps 764 mmHg 68%
    19:00 +10°C° 0 mm 6 mps 764 mmHg 70%
    20:00 +10°C° 0 mm 6 mps 765 mmHg 71%
    21:00 +9°C° 0 mm 6 mps 765 mmHg 72%
    22:00 +9°C° 0 mm 7 mps 765 mmHg 73%
    23:00 +9°C° 0 mm 7 mps 765 mmHg 73%

    30 June, Friday

    Time Temperature Precipitation Wind Pressure Humidity
    00:00 +8°C° 0 mm 7 mps 765 mmHg 73%
    01:00 +8°C° 0 mm 7 mps 765 mmHg 73%
    02:00 +8°C° 0 mm 7 mps 766 mmHg 73%
    03:00 +6°C° 0 mm 7 mps 766 mmHg 72%
    04:00 +6°C° 0 mm 7 mps 766 mmHg 72%
    05:00 +5°C° 0 mm 6 mps 767 mmHg 73%
    06:00 +5°C° 0 mm 6 mps 767 mmHg 73%
    07:00 +4°C° 0 mm 6 mps 768 mmHg 74%
    08:00 +7°C° 0 mm 6 mps 768 mmHg 68%
    09:00 +8°C° 0 mm 6 mps 769 mmHg 61%
    10:00 +9°C° 0 mm 6 mps 769 mmHg 54%
    11:00 +10°C° 0 mm 6 mps 769 mmHg 51%
    12:00 +11°C° 0 mm 6 mps 768 mmHg 47%
    13:00 +11°C° 0 mm 6 mps 768 mmHg 44%
    14:00 +12°C° 0 mm 5 mps 768 mmHg 47%
    15:00 +12°C° 0 mm 5 mps 768 mmHg 50%
    16:00 +10°C° 0 mm 5 mps 768 mmHg 53%
    17:00 +8°C° 0 mm 4 mps 769 mmHg 60%
    18:00 +6°C° 0 mm 4 mps 770 mmHg 67%
    19:00 +4°C° 0 mm 4 mps 770 mmHg 74%
    20:00 +4°C° 0 mm 4 mps 770 mmHg 71%
    21:00 +4°C° 0 mm 4 mps 771 mmHg 68%
    22:00 +5°C° 0 mm 4 mps 771 mmHg 65%
    23:00 +4°C° 0 mm 4 mps 771 mmHg 65%
    Show more